User: anonymous   Login
Location: Carri�res
(48.9069°N, 2.1792°E)
Time: 02:52:30
(UTC+00:00)
Language:

SL-14 R/B - Orbit

View from above orbital plane
View from above orbital plane
View from above satellite
View from above satellite

Ground track
Ground track

The orbit data is extracted from the following two-line orbital elements,

1 33505U 09003B   21106.25405808  .00001067  00000-0  63283-4 0  9990
2 33505  82.3859 291.0509 0026657  61.9655 298.4266 15.10020740671907
Epoch (UTC): 16 April 2021 06:05:50
Eccentricity: 0.0026657
inclination: 82.3859°
perigee height: 518 km
apogee height: 554 km
right ascension of ascending node: 291.0509°
argument of perigee: 61.9655°
revolutions per day: 15.10020740
mean anomaly at epoch: 298.4266°
orbit number at epoch: 67190

The dashed part of the orbit path shows where the satellite is in the earth's shadow,  

DLR